Location: Eaton Estates
(41.3089°N, 82.0057°W)
Time: 07:23:41
(UTC+00:00)

NOAA 18 - Pass Details

Date: 08 April 2023
Orbit: 838 x 860 km, 98.9° (Epoch: 03 June)

Event Time Altitude Azimuth Distance (km) Brightness Sun altitude
Exits shadow 04:22:14 22° 303° (WNW) 1,794 7.2 -39.2°
Drops below altitude 10° 04:24:45 10° 324° (NW) 2,504 8.3 -39.3°
Sets 04:27:27 0° 336° (NNW) 3,444 9.3 -39.5°
